Wind_Speed
12 12 12 12 12 12 12 12 12 11 11 11 11 11 11 11 11 11 11 11 11 11 12 13 14 16 16 16 16 15 14 14 14 13 14 16 16 15 13 9 8 9 9 11 13 14 15 16 17 17 17 15 13 11 8 6 6 5 3 1 3 5 6 7 7 6 3 4 10 11 9 9 7 8 9 10 11 12 13 14 14 14 13 15 15 14 17 20
11 11 11 12 12 12 12 12 12 12 12 11 11 11 11 12 12 12 12 11 11 11 11 12 13 15 16 16 16 16 16 15 15 14 16 16 16 17 14 10 9 9 7 7 9 12 13 15 17 18 18 17 14 13 10 8 6 5 3 1 3 5 6 7 7 7 4 4 9 11 10 10 8 8 9 9 11 12 13 13 12 12 14 15 16 16 18 19
11 11 11 11 11 12 12 12 12 13 13 12 12 12 11 12 12 13 13 12 11 12 12 12 13 14 15 16 16 16 16 16 16 16 16 16 16 18 15 12 11 10 9 7 9 11 13 13 16 18 19 18 17 15 11 9 7 6 5 2 3 5 6 7 8 8 5 4 8 10 10 9 9 9 10 9 10 11 11 11 8 9 13 15 16 17 19 20
12 11 11 11 12 11 11 12 12 12 13 12 12 12 12 12 12 13 13 13 12 12 12 12 13 13 14 15 16 16 15 15 17 18 17 16 17 17 17 14 13 13 12 12 13 14 15 16 16 18 18 19 19 16 13 11 8 7 7 3 4 5 6 5 7 8 5 4 6 9 9 7 9 10 10 9 9 9 9 8 6 8 11 14 16 18 20 20
12 12 12 12 12 12 12 12 12 12 13 12 12 12 12 12 12 13 14 14 13 12 12 12 13 13 14 14 15 15 13 11 16 19 17 17 17 17 17 16 15 15 14 14 15 17 18 18 18 19 19 19 20 18 15 13 10 8 7 7 6 5 4 3 6 5 4 4 5 8 8 8 10 10 10 10 8 6 8 8 7 9 10 12 15 18 20 21
14 13 12 12 12 12 12 12 12 12 13 12 12 12 13 12 12 12 13 14 13 12 12 12 12 13 13 14 14 15 13 10 14 18 18 19 17 17 18 18 18 16 16 16 16 18 20 20 20 21 21 21 21 19 17 15 12 8 6 8 8 5 4 4 4 4 4 3 4 7 9 9 10 10 10 11 10 7 8 9 10 11 12 12 15 17 19 20
16 15 14 14 13 12 12 12 13 12 13 12 12 12 12 13 12 12 13 13 13 12 12 12 12 12 13 14 14 14 14 15 15 15 18 20 18 18 19 20 20 18 18 17 16 17 18 20 20 21 22 21 21 20 19 18 14 11 9 9 8 6 5 4 3 3 3 3 3 8 10 11 11 11 11 10 10 9 9 11 13 13 15 15 16 17 19 20
16 16 16 16 15 14 13 12 12 12 12 12 12 12 12 13 12 12 13 13 13 12 12 12 12 12 12 13 14 13 14 18 17 15 17 20 19 19 20 21 21 20 19 16 15 15 16 19 19 20 20 18 21 23 22 19 15 15 13 11 10 7 4 2 1 2 2 2 2 6 9 11 11 11 11 10 10 10 10 10 13 14 15 17 16 17 19 20
18 17 17 17 16 15 14 14 13 12 11 11 11 11 12 13 13 12 13 13 13 12 12 12 12 12 12 13 13 12 14 16 17 17 16 18 20 20 20 21 21 21 19 17 16 15 16 17 18 19 17 18 22 23 23 18 13 15 15 12 12 8 5 3 1 1 1 1 1 4 7 10 12 12 12 11 11 11 11 11 13 14 14 16 17 17 18 20
20 19 19 18 17 17 16 14 14 13 11 11 10 11 12 13 13 12 12 13 13 12 11 11 11 11 11 13 11 10 14 16 16 18 17 18 20 20 20 21 21 21 19 18 17 15 16 17 18 19 18 20 22 20 23 18 11 16 17 14 14 10 8 5 2 1 0 0 1 3 6 8 11 12 12 12 12 12 12 12 13 14 13 15 18 18 19 20
21 21 21 20 19 18 17 16 15 13 12 11 11 10 11 12 12 12 12 12 13 13 12 11 11 11 11 12 12 12 15 15 16 18 18 18 19 20 21 21 21 21 19 18 16 16 17 17 19 18 14 17 19 18 23 21 16 19 19 14 13 10 7 5 3 2 2 2 2 4 5 7 10 11 12 12 12 12 13 12 13 15 14 14 17 20 20 21
21 22 22 22 21 19 18 17 16 14 12 12 11 11 10 11 11 12 11 12 12 13 12 11 11 11 11 12 14 14 15 16 16 18 18 18 19 21 22 23 23 21 20 18 17 17 17 19 20 17 14 17 16 15 20 24 21 20 19 13 9 8 6 6 5 3 3 4 4 5 5 5 8 10 10 11 11 12 13 12 13 14 15 15 17 21 21 21
21 21 21 22 21 20 19 18 17 15 13 12 12 12 11 10 11 11 11 11 12 12 12 12 11 11 12 13 14 14 15 16 17 17 17 18 18 20 22 23 24 24 22 21 19 17 18 20 21 20 20 16 12 15 18 22 22 17 17 13 9 10 9 9 6 4 5 6 5 6 5 4 6 7 8 9 11 12 12 12 12 13 16 17 18 21 22 22
21 21 21 21 21 21 20 18 18 16 14 12 12 12 12 11 11 10 11 11 11 11 12 12 12 12 12 13 13 14 15 16 16 16 16 17 17 18 20 22 23 25 25 24 23 21 20 21 22 22 22 16 14 18 14 17 22 15 12 14 12 11 12 12 8 4 5 6 7 5 5 5 5 5 5 7 9 10 12 12 11 12 15 18 19 20 22 23
22 21 21 21 21 21 20 18 18 17 15 14 13 12 12 12 11 10 10 10 10 11 12 12 12 12 12 13 13 14 15 15 15 16 16 17 17 16 18 20 22 24 25 26 25 23 23 22 23 21 19 18 19 17 10 13 19 14 12 16 15 12 11 12 10 6 6 7 8 6 3 5 3 3 2 5 7 8 11 12 11 12 13 17 20 21 22 23
22 22 21 21 21 21 20 18 18 18 16 15 14 12 11 11 11 10 9 10 9 10 11 11 12 12 12 13 14 15 16 16 16 17 18 19 19 18 18 19 20 23 24 26 25 23 24 23 22 19 16 17 18 15 11 13 16 16 17 17 18 16 10 10 11 8 8 8 7 7 4 5 3 2 1 2 6 6 9 12 13 12 12 16 19 21 22 24
22 22 22 21 21 21 20 19 19 19 17 15 15 12 10 9 10 10 9 9 8 9 10 10 12 13 12 12 13 16 18 18 17 18 19 20 21 20 18 18 19 21 23 25 24 23 24 24 23 21 18 15 15 16 15 17 19 19 20 17 16 17 11 10 11 10 9 6 6 7 5 5 4 1 2 2 4 6 8 11 13 13 13 15 17 20 23 25
22 22 21 21 20 20 20 19 19 19 16 15 14 12 9 7 8 8 8 8 8 7 7 9 12 11 11 12 14 18 20 19 19 19 19 20 20 20 19 17 17 19 21 23 24 23 23 24 22 18 17 17 16 20 18 17 20 21 22 17 13 15 12 9 10 10 10 6 7 8 6 7 4 2 1 2 1 3 6 9 12 13 14 14 15 18 22 25
20 20 21 21 20 20 20 20 19 18 15 13 13 11 8 6 6 7 8 8 8 7 5 9 14 11 8 13 18 21 21 20 20 19 19 18 19 19 19 19 17 16 19 22 24 25 24 23 22 18 19 21 20 23 18 11 14 18 22 18 13 16 14 8 8 9 9 7 8 9 7 7 6 4 3 2 1 1 3 8 11 14 14 15 16 17 21 24
20 20 20 20 20 20 20 20 18 15 12 12 12 9 6 4 3 5 7 8 9 10 10 12 18 16 10 13 19 21 21 20 19 19 19 18 18 18 19 19 18 16 17 19 22 26 25 22 23 22 21 21 21 21 14 8 10 13 19 18 12 15 13 8 9 9 10 10 8 8 8 7 7 6 5 5 4 3 3 5 10 14 15 16 17 17 19 22
21 20 19 19 20 20 20 18 15 12 10 10 9 5 4 3 1 4 7 5 7 11 13 14 19 18 14 16 20 21 20 18 16 17 18 18 17 16 17 18 17 16 16 15 18 24 25 21 23 23 18 17 19 19 13 9 10 11 15 17 13 13 11 8 9 10 9 9 8 7 8 8 7 8 7 5 4 4 5 5 7 11 14 15 17 18 20 21
22 21 20 19 17 16 15 13 11 9 8 7 5 4 4 4 3 6 5 4 6 8 12 15 18 17 16 18 20 20 19 17 17 17 18 20 18 14 15 16 15 14 16 16 16 20 24 22 20 19 16 15 18 19 15 10 10 12 13 15 15 14 10 7 9 10 8 8 8 7 7 8 8 9 9 5 2 3 6 7 6 6 9 13 15 18 21 22
21 19 18 16 14 12 9 9 8 7 6 3 3 4 3 3 3 4 4 4 4 6 12 15 18 17 17 18 19 19 18 15 16 18 18 19 19 15 14 16 15 13 16 19 18 18 21 20 18 18 18 17 17 18 18 13 12 14 14 15 15 15 11 8 9 9 8 8 7 6 7 8 7 9 10 7 6 5 7 9 10 9 9 11 11 14 18 22
19 18 17 14 11 8 7 7 7 6 4 1 3 4 2 2 3 3 4 5 1 5 12 17 19 20 19 19 19 19 16 13 14 16 17 17 18 17 14 14 14 13 15 19 18 18 16 14 16 19 19 19 17 17 18 17 16 15 15 16 14 14 12 7 7 9 9 8 7 6 7 10 10 9 9 9 8 8 11 11 12 13 12 11 10 11 15 20
18 17 16 12 9 6 6 7 6 4 1 2 4 4 2 2 4 4 7 7 3 3 11 17 19 20 19 18 18 18 15 14 15 15 15 16 16 16 13 13 14 12 14 17 17 17 14 12 17 19 18 19 18 17 18 18 17 16 17 17 13 12 12 7 5 7 10 11 11 9 9 10 12 8 6 7 7 8 12 12 12 12 13 13 13 12 14 17
18 17 15 12 8 7 7 7 5 3 1 3 4 3 2 3 5 8 9 6 5 7 8 13 16 15 16 15 17 18 14 14 16 14 15 16 16 14 13 14 14 11 13 16 15 15 14 12 16 18 18 20 18 17 18 17 16 15 17 19 13 9 10 9 7 8 10 9 9 10 10 8 12 8 5 5 5 6 9 11 13 13 13 14 14 14 14 15
19 17 15 13 10 8 8 6 5 1 2 4 4 3 2 5 9 11 7 4 7 7 6 13 13 11 12 13 16 15 11 14 16 15 16 16 15 15 14 14 13 10 11 14 14 14 14 12 15 17 18 21 20 17 17 18 16 11 11 17 16 12 11 10 9 11 11 5 5 9 10 9 9 8 4 4 5 5 7 9 10 12 13 14 14 15 15 15
19 18 16 13 11 9 7 6 4 1 2 3 4 3 3 6 10 10 2 1 6 5 7 13 10 9 12 14 16 11 7 12 13 15 16 15 14 14 12 12 13 11 12 14 13 12 13 13 14 18 19 20 21 18 16 18 18 10 6 11 15 13 12 12 12 14 10 6 10 12 10 11 7 8 4 5 7 4 6 9 9 11 13 14 15 16 16 17
19 19 17 15 13 10 8 6 3 1 1 3 4 3 6 9 10 6 2 1 7 6 10 10 6 9 11 12 14 9 8 12 10 13 15 13 15 14 11 12 11 11 13 15 13 8 11 15 14 16 18 18 19 18 14 17 18 10 5 8 11 12 12 12 13 15 12 9 14 14 13 12 7 9 4 4 6 3 2 7 9 11 13 14 16 16 16 17
20 20 19 18 16 13 11 8 5 3 2 3 5 7 9 10 7 2 3 5 7 6 9 7 5 10 11 11 11 9 13 15 10 13 15 12 13 13 13 13 11 10 11 15 14 7 8 16 16 15 16 15 16 18 15 16 16 10 7 8 10 11 11 12 13 14 12 10 16 16 14 15 7 8 5 3 3 2 2 2 4 9 12 13 14 16 16 16
19 20 20 20 18 16 13 10 8 6 5 6 9 10 10 8 1 3 3 8 8 7 7 5 6 10 12 11 10 10 13 15 13 13 12 11 11 11 12 12 11 12 11 13 15 9 7 13 16 19 20 16 14 14 14 14 15 11 10 11 12 11 11 11 13 13 10 8 16 18 14 15 11 5 6 3 2 1 3 2 2 4 10 14 16 17 17 17
17 18 20 20 18 17 15 13 11 9 9 9 10 11 7 4 1 3 6 6 5 6 5 6 8 11 12 10 10 12 11 12 15 14 11 10 9 11 12 11 13 13 12 14 15 11 10 11 14 18 21 20 15 13 13 13 16 15 14 15 14 12 10 11 12 12 10 8 12 17 16 12 7 6 5 4 2 2 3 4 2 1 5 11 15 18 19 19
15 16 18 19 18 16 15 13 12 10 9 8 10 10 3 2 3 7 6 3 3 5 6 9 11 11 12 11 11 12 11 13 15 13 12 9 7 12 12 12 17 12 7 14 16 14 12 10 12 13 15 21 19 16 15 14 18 20 18 19 16 11 9 9 9 9 11 11 9 12 14 11 6 6 5 4 2 3 4 5 3 1 3 7 12 16 19 20
13 14 15 16 16 15 14 13 12 10 9 9 9 6 1 2 6 7 6 5 5 6 9 12 12 11 12 11 12 12 11 13 12 10 10 7 5 7 6 10 19 12 3 10 16 15 12 9 13 14 11 16 20 20 16 13 18 22 19 19 18 13 9 9 10 9 12 14 12 12 11 10 9 6 6 5 3 3 3 5 4 1 2 5 11 16 17 17
12 12 13 14 13 13 12 11 11 10 8 7 5 2 3 6 6 5 6 6 7 6 8 12 12 12 12 11 12 13 11 11 12 9 8 6 5 6 6 10 19 16 7 8 12 14 9 5 13 18 13 14 20 23 18 12 15 20 20 19 19 16 11 9 10 13 15 14 13 13 8 6 10 8 7 5 4 2 1 4 5 3 2 2 10 17 17 16
10 10 11 11 10 10 10 9 9 10 8 5 3 4 7 7 6 5 5 7 9 9 10 10 10 11 12 11 10 10 11 12 13 10 8 8 5 7 10 12 17 19 13 8 9 12 8 5 11 16 13 16 19 21 22 16 12 16 21 21 17 14 11 8 7 12 15 11 11 15 11 11 13 9 6 4 4 1 2 2 5 6 5 3 7 15 18 17
7 8 8 9 8 7 8 7 8 10 9 4 3 8 9 6 7 8 8 8 10 12 9 7 9 9 10 12 10 9 10 11 11 9 8 8 5 7 11 10 14 19 17 11 7 9 8 6 9 11 9 14 16 15 20 21 13 12 18 20 15 11 11 10 6 10 13 8 10 16 15 14 13 7 4 3 2 4 5 3 4 5 5 4 6 13 17 17
6 7 8 9 8 7 7 4 5 10 8 2 7 11 9 6 7 8 9 9 11 11 4 3 9 9 8 10 11 10 9 8 8 8 8 8 5 7 11 10 11 13 16 15 7 8 9 6 8 10 9 11 14 12 15 20 19 14 11 14 15 13 13 14 9 8 11 8 8 15 15 12 9 6 5 2 2 5 7 5 5 5 5 5 4 10 15 17
7 7 8 10 8 8 7 2 4 8 5 5 8 9 9 8 8 7 7 8 10 8 1 2 8 9 8 9 10 11 9 7 8 7 7 8 5 6 9 10 10 10 13 15 9 9 12 6 7 10 9 11 12 10 10 12 19 19 12 11 15 15 14 16 15 11 11 9 7 11 13 10 5 5 6 4 3 3 6 5 6 6 6 5 4 7 12 16
8 5 7 10 9 9 9 6 5 4 4 6 8 8 8 8 8 8 7 7 7 6 4 6 8 9 11 10 10 11 8 8 9 7 6 9 7 5 7 10 9 10 11 11 10 12 12 8 6 10 10 11 9 9 10 10 11 15 15 13 16 16 12 13 16 14 12 10 8 10 10 10 8 5 5 5 4 1 3 3 5 6 6 5 4 5 8 14
8 4 6 10 9 8 9 7 2 3 5 6 8 8 7 7 7 8 7 7 6 6 7 8 9 10 11 10 10 10 9 9 8 6 7 10 9 6 6 8 9 9 9 8 8 11 11 8 6 9 10 9 9 12 15 16 14 12 10 9 13 16 14 14 14 15 14 10 7 11 9 10 8 6 6 5 4 2 0 0 2 4 4 4 4 4 6 10
5 3 6 9 8 6 7 5 3 6 7 6 6 6 6 6 7 6 6 7 7 7 9 9 11 12 11 10 10 11 11 10 8 7 8 11 11 9 9 8 9 9 8 7 6 9 11 9 6 8 9 9 11 13 13 16 18 15 11 11 13 11 12 14 10 13 18 12 7 8 9 9 9 9 7 5 5 5 2 2 1 1 2 3 3 4 5 7
4 5 7 9 8 6 7 6 7 8 6 5 5 4 4 5 5 4 5 7 7 7 9 11 11 11 11 11 11 11 12 10 8 8 9 11 11 10 9 8 8 9 7 5 5 6 8 9 7 8 9 8 10 10 10 12 13 10 8 13 16 11 13 16 8 6 16 16 11 9 7 9 12 11 8 7 7 6 3 3 3 1 0 1 2 3 4 6
5 7 8 7 6 6 7 6 7 7 6 7 6 5 3 3 4 4 4 5 7 8 10 11 11 10 11 12 11 12 10 7 9 10 9 11 11 9 8 7 6 6 5 3 4 5 5 6 8 9 8 9 8 6 8 9 8 5 4 11 16 14 18 21 13 7 12 13 14 12 6 12 16 14 10 8 9 7 5 5 3 3 3 1 1 1 2 4
5 7 7 7 7 6 6 6 7 7 7 8 6 6 5 3 5 6 5 5 7 8 8 10 11 10 11 10 9 9 8 6 10 12 10 10 11 9 8 6 5 4 3 3 3 3 3 5 8 7 5 7 6 5 8 9 7 5 4 7 12 14 16 16 12 12 13 12 12 10 11 19 18 16 13 10 10 9 7 7 5 4 4 4 3 0 1 2
5 4 5 6 8 7 5 7 8 7 6 6 5 6 6 4 5 6 6 6 6 7 7 9 10 9 8 7 6 6 7 7 9 11 11 10 9 8 7 6 5 4 3 2 2 2 2 4 6 6 5 1 2 4 11 11 6 4 3 3 6 11 14 12 11 12 13 11 7 5 18 25 20 17 15 11 10 10 9 8 7 6 5 5 4 1 1 1
5 4 5 5 6 8 7 7 8 7 6 5 5 6 6 5 4 4 5 5 6 6 6 6 8 7 7 7 6 5 7 7 8 9 10 9 8 7 7 6 5 6 6 5 5 3 2 3 6 7 7 4 2 3 11 10 6 6 4 3 4 7 8 7 9 9 10 11 8 10 20 23 19 19 18 14 12 12 11 11 9 8 8 7 6 5 3 3
6 5 6 6 6 7 6 6 7 7 6 6 5 6 6 5 5 4 4 4 5 6 5 5 6 7 7 8 6 6 6 5 6 9 9 8 7 5 5 6 6 7 7 7 6 5 4 3 6 6 7 8 7 6 9 10 9 8 6 5 5 4 5 4 7 9 10 11 12 16 19 17 17 19 19 16 15 15 14 12 11 10 9 9 8 7 5 2
6 6 7 7 7 8 7 7 8 8 8 7 5 6 7 5 4 5 5 5 3 5 5 5 5 5 6 7 7 8 7 5 5 8 8 7 6 3 2 3 4 4 5 4 4 6 5 3 6 7 5 6 7 7 8 9 8 7 7 7 6 5 6 6 5 7 9 10 15 19 18 15 15 19 19 18 18 17 16 14 12 10 9 9 8 7 6 4
6 7 7 7 7 8 8 9 9 9 9 8 6 7 8 7 5 5 6 6 5 5 7 7 6 6 5 6 8 9 9 8 7 8 7 4 3 2 2 1 2 2 3 4 5 6 4 4 7 8 5 4 5 5 6 7 7 6 6 7 8 7 6 7 9 9 9 13 18 18 15 14 15 19 21 21 20 19 17 14 12 10 9 9 8 6 6 5
6 6 7 7 7 8 9 9 10 9 8 8 7 8 8 7 6 6 6 8 9 8 9 9 8 7 7 6 7 8 9 9 8 7 7 6 4 4 3 3 3 1 1 2 4 5 4 4 7 8 5 5 5 4 4 6 6 5 6 7 9 9 7 8 11 11 11 15 18 17 14 13 15 19 21 20 19 19 18 14 11 10 10 9 8 6 5 4
6 6 7 8 8 7 8 9 9 7 6 6 8 9 8 8 8 8 6 7 9 8 8 10 9 8 7 5 5 6 7 7 7 6 6 5 4 4 4 4 4 2 2 3 3 3 5 5 5 6 5 5 5 5 5 6 6 6 8 11 11 11 10 10 13 16 16 15 14 13 12 13 14 15 14 13 15 18 18 16 12 10 9 8 8 7 6 5
Wind_Direction
320 317 313 309 305 301 298 295 291 287 283 278 275 271 268 265 261 257 253 253 253 252 249 246 243 242 240 236 233 230 226 223 220 215 213 213 209 212 218 206 200 209 209 210 211 205 200 199 198 198 201 202 200 203 198 172 162 142 106 65 83 67 59 49 34 37 60 129 137 137 132 116 119 140 145 144 142 149 163 165 163 170 173 174 170 163 176 176
319 316 312 309 306 303 301 298 295 291 286 281 277 273 270 268 266 262 256 251 249 250 249 247 246 243 241 238 235 231 228 227 223 218 216 216 210 211 213 198 193 205 204 203 209 204 199 199 197 195 198 200 201 204 195 176 168 149 155 152 91 80 68 61 53 45 48 123 137 144 138 119 121 142 147 145 146 147 155 161 160 176 184 180 177 166 174 181
324 320 315 311 306 303 301 298 296 293 289 284 279 276 272 269 268 266 263 255 249 247 245 245 246 244 242 240 237 233 229 228 227 222 220 217 212 212 211 195 188 196 191 184 194 196 194 195 196 197 198 200 201 203 195 179 172 165 162 136 122 109 68 56 64 50 47 123 144 156 154 131 129 145 150 143 150 156 160 170 175 193 194 184 184 172 168 180
327 324 320 316 311 306 302 297 294 291 289 286 283 279 275 271 270 267 265 260 253 247 244 242 243 243 243 240 238 235 229 230 231 225 221 218 213 212 210 199 190 194 190 182 184 188 190 188 191 196 199 204 204 202 195 184 179 173 160 153 166 121 70 45 63 56 57 109 147 161 165 155 146 148 151 146 148 162 167 180 194 199 196 185 182 170 164 178
330 326 322 318 314 310 306 301 295 290 287 285 284 283 279 276 273 270 267 263 259 252 246 241 239 241 240 239 238 235 226 229 233 225 222 220 213 211 209 202 195 195 193 189 188 186 188 187 188 191 194 205 206 202 196 190 184 176 173 175 167 127 90 68 66 60 76 115 152 162 170 167 164 157 147 147 149 156 162 173 181 177 181 181 175 166 164 175
331 328 325 321 316 313 309 305 299 293 289 286 283 281 281 279 275 273 269 265 263 258 252 243 238 236 237 237 236 233 217 215 230 223 221 221 213 209 207 203 199 196 194 195 195 191 190 188 189 189 191 201 204 200 197 193 186 176 188 187 170 153 136 101 62 55 84 115 143 165 177 164 164 167 149 148 149 143 150 156 163 162 158 164 168 162 165 174
333 329 327 323 320 316 311 306 301 296 293 289 286 281 279 277 274 272 269 267 264 261 257 249 241 234 233 233 232 231 218 217 227 220 218 219 215 210 205 203 200 197 197 198 198 195 194 190 189 190 191 199 202 199 195 191 189 180 188 196 186 178 154 114 58 51 73 97 138 164 168 156 157 168 159 151 144 134 138 147 155 159 151 152 163 161 166 174
339 335 331 327 323 319 313 307 303 299 297 292 287 282 277 274 272 270 268 267 265 263 261 254 246 237 231 230 229 227 222 223 225 219 217 216 214 211 206 204 200 199 199 199 202 200 200 194 192 191 190 201 204 201 194 188 196 191 188 195 190 186 170 139 71 39 38 76 141 153 151 159 161 163 166 157 145 139 138 144 152 158 154 153 160 162 167 173
343 340 337 333 328 323 318 310 305 303 300 294 287 279 274 271 268 266 265 265 264 261 259 256 250 240 231 227 225 226 227 224 222 220 216 213 213 211 207 204 201 201 197 198 201 200 203 196 193 191 190 202 205 205 194 184 204 201 191 195 191 192 188 174 179 338 1 69 151 132 138 164 164 161 172 166 152 150 144 145 154 157 156 157 162 165 170 173
342 340 338 336 332 329 325 317 310 305 301 295 287 276 270 269 267 264 262 261 261 259 255 252 249 242 233 225 218 223 227 222 220 218 213 211 210 209 206 202 202 202 198 200 199 197 200 195 195 194 195 204 203 205 197 183 203 203 194 197 191 191 194 187 201 232 252 170 179 139 144 162 159 159 175 174 160 158 155 151 158 162 160 163 167 168 172 176
340 338 337 335 333 331 329 326 318 312 305 295 287 278 268 265 265 263 260 257 256 256 252 246 244 239 232 224 215 218 223 219 218 216 211 209 207 207 203 198 200 201 199 200 198 197 194 192 196 191 196 208 202 207 205 192 194 195 192 196 194 192 204 216 214 216 203 190 191 159 154 162 163 169 180 178 167 164 165 159 162 168 168 168 172 173 175 179
339 336 334 332 331 330 330 329 324 320 312 297 287 281 272 264 262 260 258 254 251 250 248 241 237 233 227 222 217 219 220 218 216 213 210 207 205 205 201 197 196 196 198 198 199 198 191 191 190 182 192 203 201 211 211 202 194 192 191 194 205 207 220 232 215 216 201 189 195 162 157 173 175 182 180 173 171 170 169 165 165 172 175 175 177 177 176 181
337 335 333 330 328 327 328 330 326 324 319 303 288 279 275 268 262 259 257 253 249 245 244 239 230 226 221 218 218 219 220 219 216 212 207 205 204 204 202 199 196 193 193 194 197 197 194 192 185 185 192 186 196 212 209 207 197 192 197 198 213 212 213 225 213 213 206 194 199 164 147 153 163 177 175 171 177 176 172 171 171 174 180 181 180 180 178 180
335 334 331 327 324 324 326 329 326 324 324 311 293 280 274 271 266 262 258 255 252 245 241 236 226 220 216 216 218 217 219 221 218 211 205 202 201 202 202 200 199 196 192 193 194 192 193 192 187 192 190 176 195 207 203 207 197 190 206 206 211 206 202 220 222 206 204 201 206 184 130 103 120 148 163 178 183 181 178 177 179 179 183 185 182 182 181 180
332 331 329 325 322 321 325 328 323 321 325 319 305 288 273 270 268 265 262 258 253 246 240 233 222 216 211 213 214 213 215 216 214 207 201 197 194 197 201 200 201 200 197 196 196 192 188 189 191 192 191 190 195 195 189 199 195 193 203 202 207 206 196 214 225 201 195 211 206 190 135 93 116 149 148 181 179 179 183 182 185 184 185 186 183 182 182 181
329 327 325 322 320 320 322 325 320 318 323 322 315 301 279 270 267 265 266 260 254 246 239 229 218 208 204 209 211 208 208 206 205 203 200 196 192 192 197 199 201 202 202 200 199 197 188 184 189 188 193 202 194 186 185 191 194 198 204 202 203 206 194 199 217 207 202 218 204 189 160 109 120 148 91 177 174 173 184 185 185 184 185 186 182 181 182 183
324 323 322 321 319 318 320 321 316 314 319 321 321 312 287 271 264 264 263 256 252 243 235 225 212 201 202 208 204 202 203 200 199 200 200 200 197 193 191 195 200 201 203 203 202 200 191 184 188 190 189 195 191 189 191 193 193 194 203 208 201 203 204 192 203 213 211 211 200 200 184 146 136 88 48 84 159 169 183 188 188 185 184 184 183 182 183 184
322 321 320 320 319 317 319 317 313 313 315 319 321 314 296 277 262 258 256 249 240 231 233 222 202 193 207 203 190 195 199 195 195 197 197 200 201 197 190 190 197 201 200 204 205 201 194 189 189 193 191 191 192 193 195 197 195 191 195 200 195 199 209 197 191 209 211 197 196 203 201 195 206 278 336 25 74 154 175 188 192 190 186 184 184 185 186 187
323 322 321 321 319 318 317 314 312 311 313 319 320 313 300 280 266 256 244 235 220 197 203 209 188 177 200 202 193 194 194 191 193 195 195 199 202 200 195 188 189 199 199 200 205 201 195 191 189 193 199 199 194 192 195 197 196 196 194 198 200 199 205 200 190 204 201 190 199 203 205 206 212 245 263 264 275 223 175 187 193 193 189 187 187 188 190 190
328 327 325 322 319 317 315 312 310 309 315 321 318 314 300 290 299 276 251 230 214 199 196 195 185 177 179 197 196 190 188 192 194 196 196 199 202 201 200 192 184 189 193 196 205 204 196 193 195 197 201 202 196 192 195 193 184 186 191 197 199 195 196 187 190 207 201 195 204 204 206 204 197 218 236 224 220 229 208 196 197 197 194 191 191 190 192 193
332 331 328 322 318 315 312 309 308 311 320 320 313 307 285 275 208 258 262 242 224 210 202 193 184 183 182 189 191 184 184 188 192 197 196 196 197 196 199 194 184 184 187 189 202 204 198 200 205 203 200 200 197 194 193 186 175 173 184 190 190 191 185 167 188 205 198 198 206 205 213 213 200 208 222 226 220 215 212 208 204 202 202 200 196 193 193 195
336 333 327 323 320 314 309 306 310 317 320 312 296 272 257 256 224 240 253 240 232 213 205 193 180 183 187 185 186 182 178 176 183 189 192 193 188 188 202 194 183 187 186 183 190 197 200 206 210 205 199 195 195 195 194 188 186 188 188 190 195 194 178 167 194 203 189 191 203 206 216 217 206 205 216 241 281 237 215 210 214 215 214 210 202 198 195 194
338 335 330 332 330 322 317 317 324 326 319 297 250 231 235 249 233 239 231 217 233 212 199 186 173 174 176 178 182 177 169 172 183 184 187 190 181 185 204 193 184 192 193 189 189 192 201 209 208 201 196 190 189 194 198 197 197 198 195 196 197 190 187 189 187 190 190 190 197 203 217 219 207 204 216 249 281 259 230 211 208 212 216 220 216 207 200 196
342 339 338 341 341 335 333 333 334 329 316 252 208 206 214 213 190 201 185 159 164 216 190 176 170 170 172 176 177 170 166 175 187 191 189 184 184 191 196 190 189 197 199 198 198 198 204 208 200 196 194 189 189 194 198 202 202 201 200 201 196 190 198 193 157 171 196 209 209 211 230 222 208 206 214 240 264 247 232 221 210 209 208 215 224 216 203 198
347 344 343 345 348 344 339 340 339 334 298 195 185 190 194 163 156 148 138 125 93 173 174 167 165 169 172 173 174 171 172 178 184 195 189 179 189 197 192 192 193 201 206 200 200 205 208 204 193 191 193 192 194 197 198 201 203 206 206 204 199 191 195 188 156 178 207 217 210 214 237 210 190 198 199 213 240 230 225 223 217 218 215 211 214 215 209 202
355 352 350 350 354 348 342 343 339 345 156 173 173 180 168 138 136 124 116 121 130 122 147 162 160 169 173 171 177 174 171 183 186 187 184 180 187 190 191 196 194 202 206 194 199 209 208 206 199 195 195 193 196 201 200 199 204 212 209 204 202 193 193 198 193 200 212 213 191 205 237 201 163 170 183 187 210 210 211 216 214 218 224 221 213 212 216 211
4 2 358 355 356 353 348 345 340 1 149 166 173 175 139 133 129 121 116 144 135 103 131 159 156 169 175 168 173 173 177 193 191 188 188 184 183 185 189 195 196 197 188 184 199 210 201 197 196 195 195 195 198 201 198 198 204 209 199 201 208 210 209 209 209 217 224 232 204 204 234 231 171 157 189 184 166 174 191 206 213 212 218 220 211 206 210 211
14 13 9 4 2 359 358 356 354 358 171 171 181 176 129 141 133 124 144 158 113 91 142 159 158 167 171 167 167 174 190 185 185 194 192 183 181 182 186 195 201 199 188 183 192 200 196 190 189 191 193 198 201 201 197 199 204 207 187 194 208 213 217 218 218 224 225 237 234 209 207 232 192 135 137 138 126 133 179 192 204 211 217 217 210 205 204 206
23 22 19 17 12 9 12 15 22 40 164 166 172 145 126 134 122 119 252 93 99 115 146 155 164 162 161 164 168 177 176 165 176 190 184 184 185 177 185 199 198 199 198 195 196 199 199 196 190 188 195 203 203 201 201 200 203 216 217 198 204 210 216 220 220 223 221 225 233 213 197 218 186 125 134 118 107 94 158 187 196 204 218 222 218 213 206 206
29 26 25 23 19 18 20 25 48 69 109 137 135 126 122 121 115 165 214 105 99 131 152 158 176 171 163 159 168 174 170 170 179 180 176 185 187 181 192 195 188 191 194 200 207 210 197 197 193 189 195 201 200 200 203 203 204 217 220 199 199 204 208 216 217 219 222 223 228 218 204 218 202 113 114 94 90 130 150 190 207 203 213 219 219 216 209 208
33 32 29 26 24 25 26 34 49 67 99 112 121 120 109 108 120 268 128 106 107 125 147 155 153 167 166 159 161 161 170 179 176 169 170 174 175 182 193 190 187 191 188 196 206 205 191 193 197 200 196 185 182 192 200 206 207 211 208 195 190 186 190 203 206 211 222 222 222 217 208 221 219 120 88 58 51 187 194 233 265 204 209 210 209 208 205 205
37 37 34 31 32 34 37 47 56 70 87 101 115 108 97 116 93 48 89 109 123 123 139 147 136 151 157 147 146 148 159 171 165 157 153 156 163 176 186 184 180 187 192 192 192 190 186 186 197 207 204 195 191 196 200 204 206 206 203 198 193 182 182 198 197 201 217 219 213 210 206 214 200 115 75 36 11 271 272 275 285 147 195 204 203 200 200 202
38 38 37 36 37 41 45 52 58 67 79 95 102 90 88 185 79 62 61 61 129 142 153 147 137 148 152 141 137 145 151 154 161 165 157 149 158 179 192 185 179 187 202 190 184 178 174 180 196 203 208 207 206 207 206 202 203 203 199 197 197 191 186 197 196 195 209 210 194 193 202 201 159 110 74 42 349 294 294 292 287 80 147 186 198 197 197 201
40 39 37 36 38 45 47 49 53 55 68 85 82 74 103 105 77 65 48 57 104 136 148 142 136 145 152 150 143 141 144 146 150 158 155 141 126 159 185 184 185 196 209 186 186 183 176 175 187 190 200 204 202 207 208 198 201 202 200 201 204 208 204 196 198 197 197 197 182 180 201 202 170 130 76 63 20 331 311 301 292 332 110 166 190 192 192 198
40 38 34 28 28 39 45 49 49 42 56 71 48 39 102 88 77 58 53 91 112 115 136 138 139 148 150 152 153 148 144 142 140 135 138 142 127 145 174 185 191 198 209 197 188 188 185 149 171 185 192 189 194 203 200 189 199 200 200 207 211 213 216 215 211 199 192 192 184 183 190 159 147 127 86 71 41 20 322 312 297 305 341 179 190 190 187 188
35 31 28 17 12 19 27 41 47 42 52 52 22 74 84 80 78 67 82 125 131 128 138 139 146 156 151 145 146 152 156 149 141 131 126 136 143 162 174 185 191 195 208 212 187 191 190 130 164 186 193 191 192 197 195 194 199 194 198 208 212 210 215 230 216 191 196 201 181 177 156 123 134 126 101 77 36 324 229 292 281 285 295 253 192 192 192 188
19 18 12 356 347 353 2 16 36 45 46 32 124 103 81 72 79 83 104 126 137 140 143 152 154 153 154 149 138 137 149 146 140 133 124 124 133 151 152 167 186 193 203 199 187 207 195 130 149 174 187 196 194 190 195 201 197 186 200 206 202 205 220 235 220 186 199 204 171 177 169 158 169 157 117 66 11 237 227 236 248 266 279 263 192 187 196 195
357 5 352 334 325 339 348 344 32 48 51 84 133 112 86 74 74 82 105 119 140 147 135 164 157 150 154 154 145 143 147 149 149 144 130 118 117 137 135 144 166 181 195 193 188 212 197 139 137 166 181 187 186 186 192 203 203 196 202 201 197 208 213 219 226 195 197 201 176 179 172 166 177 149 113 39 350 225 226 223 226 240 257 264 214 185 190 197
358 4 334 328 330 338 342 343 55 57 77 103 107 103 87 80 76 82 100 114 142 154 151 178 164 162 159 147 148 152 148 151 154 148 140 127 121 137 132 132 139 149 177 187 187 195 199 190 146 158 178 172 171 182 183 197 208 207 210 204 206 218 209 207 219 209 201 206 182 176 172 158 141 111 98 61 56 205 223 220 223 227 224 236 232 195 187 191
5 12 317 330 338 334 352 27 60 73 117 113 106 110 99 87 81 81 85 96 127 148 164 171 169 167 162 152 154 157 145 143 146 142 146 137 126 132 130 126 126 125 143 164 173 176 190 213 170 148 173 179 172 189 184 173 188 202 212 210 205 215 217 212 216 216 223 222 188 184 179 147 135 125 106 82 79 167 225 214 213 217 211 212 213 197 186 186
16 22 313 332 339 338 7 23 52 113 114 114 117 119 113 107 97 86 80 83 102 132 150 164 169 166 163 158 161 160 145 135 136 130 136 141 139 142 138 130 126 120 117 130 157 167 176 206 196 157 164 176 185 199 197 187 179 179 198 207 199 207 214 211 208 210 228 245 218 199 170 126 136 148 125 107 93 95 123 234 203 204 199 197 196 182 176 181
17 357 314 331 340 0 40 40 69 103 106 115 122 121 122 119 107 99 96 91 94 119 138 153 163 164 164 161 164 163 145 132 132 132 142 157 161 158 151 138 127 121 109 107 139 161 170 179 174 150 149 169 191 195 196 197 193 186 191 198 199 208 215 217 221 210 213 235 247 198 145 126 168 167 136 128 108 92 73 26 12 211 197 190 189 175 166 173
347 336 336 340 348 31 73 66 66 87 99 101 98 98 112 122 123 126 119 109 108 120 131 141 148 154 158 156 159 162 152 142 143 147 157 166 165 163 159 145 129 123 111 101 123 141 158 161 145 131 140 165 181 182 186 188 184 187 203 202 201 207 211 220 245 226 210 217 221 195 138 141 174 163 136 129 110 98 92 56 18 344 3 189 200 190 169 167
343 351 354 351 8 63 98 90 76 81 81 79 73 67 86 131 143 144 143 133 129 129 136 140 137 141 148 146 150 158 153 145 150 157 166 167 164 167 167 156 140 129 120 117 130 133 147 166 164 157 158 169 175 183 192 181 159 156 188 199 202 205 209 218 230 231 219 216 219 220 158 146 168 161 144 133 114 108 112 95 57 30 38 30 264 237 183 163
2 2 4 15 40 79 123 119 98 92 84 82 80 77 86 123 143 143 144 140 139 137 140 143 139 139 142 140 150 164 160 156 161 161 163 167 170 171 172 174 165 150 146 141 134 139 152 174 189 204 204 183 183 185 174 165 157 160 167 189 202 204 207 214 218 224 222 209 221 230 148 142 160 159 144 133 122 115 115 118 108 83 68 54 54 42 223 158
24 9 12 33 48 60 90 105 104 108 103 92 90 89 91 108 137 145 139 132 142 143 141 148 143 134 132 130 141 162 161 160 162 163 163 169 177 179 179 187 194 205 229 245 250 227 189 196 214 252 280 316 55 136 160 158 148 153 158 169 195 203 203 204 213 226 216 186 178 168 148 149 158 161 153 146 140 129 122 129 125 110 101 87 82 75 350 53
32 31 41 57 60 52 53 70 87 103 114 113 111 101 95 101 112 128 141 148 154 143 139 153 147 133 131 132 131 142 147 151 159 167 173 174 180 189 195 203 220 244 260 271 267 236 175 215 223 237 248 249 305 182 175 172 159 153 155 150 177 193 188 195 213 212 199 182 148 134 151 153 152 163 166 160 154 151 146 142 134 125 117 106 95 82 70 78
31 32 46 62 74 66 57 63 78 90 99 105 111 105 99 108 113 111 117 137 158 148 134 145 153 155 157 150 140 135 135 138 156 167 174 180 184 198 224 234 245 255 255 264 259 208 167 197 208 206 221 225 228 211 187 185 183 176 170 155 150 151 136 162 197 187 190 196 167 152 157 150 148 163 167 164 163 163 160 154 143 133 121 113 110 105 105 101
37 39 46 54 67 73 70 71 78 84 85 85 97 109 109 111 122 124 109 92 125 152 136 130 146 162 170 164 149 141 141 141 162 177 184 192 200 200 235 259 267 256 228 222 217 185 161 194 199 176 177 204 208 201 189 187 184 180 182 171 148 132 130 130 138 153 169 167 153 153 152 142 151 164 164 166 167 164 164 162 153 145 133 125 124 125 131 134
38 46 49 52 61 69 70 68 69 72 76 78 85 102 110 110 111 125 121 100 90 105 110 113 121 128 145 159 153 156 167 167 173 192 189 183 207 199 169 207 234 231 205 184 179 166 155 209 195 159 150 191 189 189 189 181 173 169 178 176 161 146 134 125 123 127 135 137 141 149 147 139 155 167 167 167 165 162 165 163 158 159 155 146 141 140 149 154
41 50 57 60 59 62 67 67 66 69 73 81 95 100 105 116 117 115 123 120 110 105 105 105 106 107 115 140 162 178 189 184 185 199 188 171 177 180 178 194 188 189 254 206 187 168 168 200 184 165 178 186 171 178 181 171 173 178 178 176 165 154 150 156 155 144 133 138 147 154 154 151 159 166 168 169 167 167 165 158 158 166 166 162 158 153 161 173
40 45 55 64 58 53 62 65 69 80 83 84 97 101 103 116 116 104 104 120 120 120 118 110 100 94 97 123 162 178 188 189 193 202 194 186 191 185 191 201 189 184 209 204 197 181 170 168 175 190 197 174 172 178 160 166 184 186 189 192 181 171 171 175 176 167 151 145 154 162 159 157 160 161 162 166 173 177 171 162 165 172 171 172 171 168 172 177
Height
3146 3145 3145 3144 3144 3143 3143 3142 3142 3142 3142 3141 3141 3141 3141 3140 3140 3140 3140 3141 3141 3141 3142 3142 3142 3143 3143 3144 3145 3146 3146 3147 3148 3148 3149 3149 3150 3151 3152 3153 3155 3155 3157 3158 3160 3162 3163 3165 3167 3168 3170 3171 3172 3173 3174 3174 3174 3174 3175 3176 3176 3176 3175 3174 3174 3173 3173 3173 3173 3173 3175 3176 3177 3178 3180 3181 3182 3183 3185 3186 3188 3189 3190 3191 3193 3195 3197 3199
3144 3144 3143 3143 3142 3142 3141 3141 3140 3140 3140 3140 3140 3139 3139 3139 3139 3138 3139 3139 3139 3140 3140 3140 3141 3141 3142 3143 3143 3144 3145 3146 3147 3147 3147 3148 3149 3150 3151 3153 3154 3155 3156 3158 3159 3161 3163 3165 3166 3168 3169 3171 3172 3173 3174 3174 3175 3175 3176 3177 3177 3176 3175 3174 3173 3173 3173 3173 3173 3174 3175 3176 3178 3179 3180 3181 3182 3183 3185 3187 3188 3189 3190 3191 3193 3195 3197 3200
3142 3142 3141 3141 3140 3140 3140 3139 3139 3138 3138 3138 3138 3138 3138 3137 3137 3137 3137 3137 3138 3138 3138 3139 3139 3140 3140 3141 3142 3143 3144 3145 3145 3146 3146 3147 3148 3149 3150 3152 3153 3154 3155 3157 3159 3161 3163 3164 3166 3167 3169 3170 3171 3173 3174 3175 3175 3175 3176 3178 3177 3176 3176 3175 3174 3174 3173 3173 3173 3174 3176 3177 3178 3179 3181 3182 3183 3184 3186 3187 3188 3189 3190 3191 3193 3195 3197 3200
3140 3140 3139 3139 3139 3138 3138 3138 3137 3137 3136 3136 3136 3136 3136 3136 3136 3135 3135 3136 3136 3136 3137 3137 3138 3138 3139 3139 3140 3141 3143 3144 3144 3144 3145 3146 3147 3148 3150 3151 3153 3153 3154 3156 3157 3159 3161 3163 3165 3166 3168 3170 3171 3172 3174 3174 3175 3176 3176 3178 3177 3176 3176 3176 3174 3174 3174 3174 3174 3175 3176 3177 3179 3180 3181 3182 3184 3185 3187 3188 3188 3189 3190 3191 3193 3195 3197 3200
3139 3138 3137 3137 3137 3136 3136 3136 3135 3135 3135 3135 3134 3134 3134 3134 3134 3134 3133 3134 3134 3135 3135 3135 3136 3137 3137 3138 3139 3140 3142 3143 3142 3143 3144 3145 3146 3148 3149 3150 3152 3152 3153 3155 3156 3158 3160 3162 3163 3165 3167 3169 3170 3172 3173 3174 3175 3176 3176 3177 3176 3176 3177 3176 3176 3176 3175 3174 3175 3175 3175 3177 3179 3180 3181 3182 3184 3186 3187 3188 3188 3189 3190 3192 3194 3195 3198 3201
3139 3137 3136 3135 3135 3135 3134 3134 3133 3133 3133 3133 3133 3133 3132 3132 3132 3132 3132 3132 3133 3133 3133 3134 3134 3135 3136 3136 3137 3138 3141 3141 3140 3141 3142 3143 3145 3146 3148 3149 3150 3152 3153 3154 3155 3157 3159 3161 3162 3164 3166 3168 3169 3171 3173 3174 3175 3176 3177 3176 3176 3177 3177 3176 3176 3176 3176 3175 3175 3175 3176 3177 3179 3181 3181 3182 3184 3186 3187 3187 3188 3189 3191 3192 3195 3196 3198 3201
3138 3137 3135 3134 3134 3133 3132 3132 3131 3131 3131 3131 3131 3131 3130 3130 3130 3130 3130 3130 3131 3131 3132 3132 3133 3133 3134 3135 3136 3137 3138 3138 3138 3140 3141 3142 3144 3145 3146 3147 3149 3151 3152 3153 3154 3156 3158 3160 3162 3164 3165 3167 3168 3170 3172 3173 3174 3175 3176 3176 3176 3177 3177 3177 3177 3177 3176 3176 3175 3175 3176 3177 3178 3180 3181 3182 3184 3185 3186 3187 3188 3190 3191 3193 3195 3197 3199 3202
3137 3136 3134 3133 3132 3131 3131 3130 3129 3129 3129 3129 3129 3129 3128 3128 3128 3128 3128 3128 3129 3130 3130 3131 3131 3132 3133 3133 3134 3135 3136 3136 3137 3138 3139 3140 3142 3144 3145 3146 3148 3149 3151 3153 3154 3156 3158 3160 3162 3163 3166 3167 3168 3169 3170 3172 3174 3174 3175 3176 3176 3177 3177 3177 3177 3177 3176 3176 3176 3175 3176 3177 3178 3180 3181 3182 3184 3185 3186 3187 3189 3191 3192 3193 3196 3198 3200 3203
3135 3134 3133 3132 3131 3130 3129 3128 3127 3128 3128 3127 3127 3126 3126 3126 3126 3126 3126 3126 3127 3128 3128 3129 3130 3130 3131 3132 3133 3134 3134 3134 3136 3137 3138 3139 3140 3142 3144 3145 3147 3149 3151 3152 3154 3156 3158 3160 3162 3163 3165 3166 3166 3168 3170 3173 3174 3174 3175 3175 3176 3177 3177 3178 3178 3177 3177 3176 3176 3176 3176 3177 3178 3179 3181 3182 3184 3185 3186 3188 3190 3192 3193 3194 3196 3199 3201 3203
3133 3132 3131 3130 3129 3128 3127 3126 3125 3126 3126 3125 3125 3124 3124 3124 3124 3124 3124 3125 3125 3126 3126 3127 3128 3129 3130 3130 3132 3133 3132 3133 3134 3135 3136 3138 3139 3141 3143 3144 3146 3148 3150 3152 3153 3155 3157 3159 3161 3162 3164 3165 3166 3168 3169 3171 3173 3173 3174 3175 3176 3177 3177 3177 3177 3177 3177 3176 3176 3176 3176 3177 3177 3179 3181 3182 3183 3185 3187 3188 3190 3192 3194 3195 3197 3199 3201 3203
3131 3130 3129 3128 3127 3126 3125 3124 3123 3123 3123 3123 3123 3123 3122 3122 3122 3122 3122 3123 3123 3123 3124 3125 3126 3127 3128 3129 3130 3131 3131 3131 3132 3133 3135 3136 3138 3140 3141 3143 3145 3147 3149 3151 3153 3155 3156 3158 3160 3162 3165 3165 3166 3167 3168 3169 3170 3171 3173 3175 3176 3177 3177 3177 3177 3177 3177 3177 3176 3176 3176 3176 3177 3178 3180 3182 3183 3185 3187 3189 3190 3192 3194 3195 3197 3198 3200 3203
3130 3128 3127 3126 3125 3124 3123 3122 3121 3121 3121 3121 3120 3120 3120 3120 3120 3120 3120 3121 3121 3122 3122 3123 3124 3125 3126 3128 3128 3129 3129 3130 3131 3132 3133 3135 3137 3138 3140 3142 3144 3146 3149 3150 3152 3154 3155 3157 3158 3161 3163 3164 3166 3167 3167 3168 3170 3171 3173 3175 3177 3177 3178 3177 3177 3177 3177 3177 3176 3176 3177 3177 3177 3177 3179 3182 3183 3185 3187 3189 3191 3192 3193 3195 3197 3198 3200 3202
3129 3127 3125 3124 3123 3122 3121 3120 3119 3119 3119 3118 3118 3118 3118 3118 3118 3118 3119 3119 3119 3120 3121 3121 3122 3123 3124 3126 3126 3127 3128 3129 3130 3131 3132 3134 3136 3137 3139 3140 3142 3144 3147 3149 3151 3152 3154 3155 3157 3160 3160 3163 3167 3166 3165 3168 3170 3172 3173 3175 3177 3178 3178 3177 3176 3177 3177 3177 3177 3177 3178 3178 3178 3178 3179 3181 3183 3185 3187 3189 3190 3192 3193 3194 3196 3198 3199 3202
3127 3126 3124 3122 3121 3120 3119 3119 3118 3117 3117 3116 3115 3115 3115 3116 3116 3116 3117 3117 3118 3118 3119 3119 3120 3121 3123 3124 3125 3126 3127 3128 3129 3130 3131 3133 3135 3136 3138 3139 3141 3143 3145 3147 3148 3150 3152 3154 3156 3157 3159 3162 3164 3164 3166 3168 3170 3172 3174 3175 3176 3177 3176 3176 3176 3177 3177 3177 3177 3177 3178 3178 3177 3178 3179 3181 3183 3185 3187 3189 3190 3191 3192 3194 3195 3197 3199 3201
3125 3124 3122 3121 3119 3118 3118 3117 3116 3115 3115 3114 3113 3113 3113 3113 3114 3114 3115 3116 3116 3117 3117 3118 3119 3120 3121 3122 3123 3124 3125 3127 3128 3129 3130 3132 3133 3135 3136 3138 3140 3142 3144 3145 3147 3148 3150 3153 3155 3157 3159 3160 3161 3164 3167 3169 3170 3172 3173 3174 3175 3175 3174 3175 3176 3176 3177 3176 3176 3177 3177 3178 3178 3178 3179 3181 3183 3185 3187 3188 3190 3191 3192 3193 3195 3196 3199 3201
3123 3121 3120 3119 3117 3116 3116 3115 3114 3113 3113 3112 3111 3111 3111 3111 3112 3112 3113 3114 3114 3115 3116 3116 3117 3119 3120 3121 3121 3123 3124 3125 3126 3128 3129 3130 3131 3133 3135 3137 3139 3141 3143 3145 3147 3148 3149 3152 3154 3157 3159 3160 3161 3165 3168 3169 3170 3171 3171 3172 3173 3173 3173 3175 3175 3175 3176 3176 3176 3176 3177 3178 3179 3178 3179 3181 3183 3184 3186 3188 3189 3190 3191 3192 3194 3196 3198 3200
3121 3119 3118 3117 3116 3115 3114 3114 3112 3111 3111 3110 3109 3109 3109 3109 3110 3110 3111 3112 3113 3113 3114 3115 3116 3118 3119 3119 3120 3121 3122 3124 3125 3127 3128 3129 3130 3132 3134 3136 3138 3140 3142 3145 3146 3148 3150 3151 3153 3155 3157 3160 3163 3165 3166 3167 3167 3169 3170 3170 3171 3172 3173 3174 3174 3175 3175 3176 3177 3177 3177 3179 3179 3179 3180 3181 3183 3184 3186 3187 3189 3190 3191 3192 3194 3196 3198 3200
3119 3118 3116 3115 3114 3113 3112 3112 3110 3110 3109 3108 3107 3107 3107 3107 3108 3108 3109 3110 3111 3112 3113 3114 3115 3118 3118 3118 3119 3120 3121 3123 3124 3126 3127 3128 3130 3131 3133 3135 3137 3139 3142 3144 3146 3148 3150 3151 3153 3156 3157 3159 3161 3163 3163 3163 3164 3166 3168 3168 3170 3172 3172 3172 3174 3174 3174 3176 3177 3177 3178 3179 3179 3179 3180 3181 3183 3184 3185 3187 3188 3189 3191 3192 3194 3196 3197 3199
3118 3116 3115 3113 3112 3111 3111 3110 3109 3108 3107 3107 3106 3105 3105 3106 3106 3107 3107 3108 3109 3111 3112 3113 3114 3116 3117 3117 3117 3118 3120 3122 3124 3125 3127 3128 3129 3131 3133 3134 3136 3139 3142 3144 3145 3147 3149 3151 3152 3155 3156 3157 3158 3160 3162 3163 3163 3165 3167 3168 3169 3170 3171 3172 3173 3173 3174 3176 3177 3178 3178 3179 3179 3180 3180 3181 3182 3184 3185 3186 3187 3189 3190 3191 3193 3195 3197 3199
3116 3115 3113 3112 3111 3110 3109 3108 3107 3106 3106 3105 3104 3104 3104 3104 3105 3106 3105 3107 3108 3108 3110 3110 3112 3114 3115 3116 3116 3118 3120 3122 3123 3125 3126 3128 3129 3131 3133 3134 3136 3138 3141 3143 3144 3145 3148 3150 3151 3152 3154 3156 3157 3160 3162 3162 3162 3164 3166 3168 3168 3169 3170 3172 3172 3173 3174 3175 3177 3178 3179 3179 3180 3180 3181 3181 3182 3183 3184 3185 3187 3188 3189 3190 3192 3194 3196 3198
3115 3113 3112 3110 3109 3108 3107 3106 3105 3105 3105 3104 3103 3103 3103 3103 3105 3105 3105 3106 3106 3107 3108 3109 3110 3112 3113 3115 3115 3117 3120 3121 3123 3124 3126 3127 3129 3131 3133 3134 3136 3139 3141 3144 3144 3145 3147 3149 3150 3151 3154 3156 3158 3160 3161 3161 3162 3164 3166 3167 3168 3169 3170 3171 3172 3172 3173 3175 3177 3178 3179 3180 3181 3181 3181 3181 3182 3183 3184 3185 3186 3187 3188 3189 3191 3193 3195 3197
3113 3111 3110 3109 3108 3107 3106 3105 3104 3104 3104 3103 3102 3102 3103 3103 3104 3104 3104 3105 3106 3106 3107 3108 3110 3111 3113 3114 3115 3117 3119 3121 3123 3124 3125 3127 3129 3132 3133 3135 3138 3140 3141 3142 3143 3144 3146 3148 3150 3152 3154 3156 3157 3158 3160 3161 3163 3164 3165 3166 3167 3168 3169 3170 3171 3172 3173 3175 3177 3178 3179 3180 3180 3181 3181 3181 3181 3182 3183 3184 3185 3186 3187 3188 3190 3192 3193 3195
3112 3110 3108 3107 3106 3105 3104 3104 3103 3103 3103 3102 3102 3102 3102 3103 3103 3103 3103 3104 3105 3105 3106 3107 3109 3111 3113 3115 3116 3118 3120 3123 3123 3123 3125 3126 3129 3131 3133 3135 3138 3140 3140 3141 3142 3144 3145 3147 3150 3151 3152 3154 3156 3157 3159 3161 3163 3164 3165 3166 3166 3167 3169 3169 3170 3172 3173 3175 3176 3177 3178 3179 3179 3180 3181 3180 3180 3181 3182 3182 3183 3184 3186 3187 3189 3191 3193 3194
3111 3109 3107 3106 3105 3104 3104 3103 3103 3102 3102 3102 3102 3102 3102 3102 3103 3103 3103 3104 3106 3105 3105 3107 3109 3111 3113 3114 3116 3118 3121 3123 3124 3124 3125 3127 3129 3130 3132 3135 3137 3139 3139 3140 3142 3144 3145 3147 3148 3149 3150 3153 3156 3157 3159 3161 3162 3163 3164 3165 3165 3166 3168 3169 3169 3171 3173 3174 3175 3177 3177 3177 3178 3179 3180 3180 3180 3180 3181 3181 3182 3183 3184 3185 3187 3189 3192 3193
3110 3108 3107 3106 3105 3104 3103 3102 3102 3101 3101 3101 3101 3101 3102 3102 3102 3103 3103 3105 3106 3106 3106 3108 3109 3111 3112 3114 3116 3118 3120 3122 3123 3124 3125 3127 3129 3130 3133 3135 3136 3138 3139 3140 3142 3144 3145 3145 3145 3147 3150 3153 3155 3156 3158 3160 3161 3162 3163 3164 3165 3166 3168 3169 3169 3171 3172 3173 3173 3175 3174 3172 3175 3178 3179 3180 3179 3179 3180 3180 3182 3182 3183 3184 3185 3188 3190 3192
3110 3108 3107 3105 3104 3104 3103 3102 3102 3101 3101 3101 3101 3101 3102 3102 3102 3103 3104 3105 3107 3107 3108 3110 3111 3112 3113 3115 3116 3118 3120 3122 3122 3123 3124 3126 3128 3130 3133 3134 3135 3137 3138 3139 3141 3143 3144 3143 3144 3147 3150 3152 3154 3156 3157 3159 3160 3161 3161 3162 3164 3166 3167 3168 3170 3171 3171 3170 3170 3173 3172 3169 3172 3176 3177 3178 3178 3178 3178 3179 3180 3181 3182 3183 3184 3186 3188 3191
3110 3109 3107 3106 3105 3104 3103 3102 3101 3101 3101 3101 3101 3102 3102 3102 3103 3103 3104 3104 3106 3108 3109 3110 3111 3113 3114 3115 3116 3119 3120 3120 3122 3123 3124 3125 3127 3128 3131 3133 3134 3135 3136 3138 3140 3141 3141 3142 3143 3147 3149 3151 3153 3154 3156 3157 3159 3159 3159 3162 3164 3165 3167 3168 3169 3170 3169 3169 3170 3172 3173 3170 3170 3174 3176 3177 3177 3176 3177 3178 3179 3180 3181 3182 3183 3185 3187 3189
3111 3109 3108 3107 3105 3104 3103 3102 3102 3102 3102 3102 3102 3102 3102 3103 3103 3104 3103 3103 3105 3108 3110 3111 3111 3112 3114 3115 3117 3119 3119 3120 3122 3122 3123 3125 3126 3128 3131 3132 3134 3135 3135 3137 3139 3138 3139 3141 3143 3145 3148 3150 3151 3153 3155 3156 3158 3158 3158 3161 3163 3164 3166 3167 3169 3169 3169 3170 3169 3169 3172 3170 3168 3173 3176 3176 3176 3176 3176 3177 3178 3179 3180 3181 3182 3184 3185 3186
3112 3110 3109 3108 3106 3105 3104 3103 3102 3102 3102 3102 3102 3103 3103 3103 3104 3104 3104 3104 3107 3109 3110 3112 3112 3113 3114 3116 3117 3118 3119 3120 3121 3121 3123 3125 3126 3128 3130 3131 3133 3135 3135 3136 3138 3138 3139 3141 3143 3145 3147 3149 3150 3153 3154 3155 3157 3158 3158 3160 3162 3163 3165 3167 3167 3168 3169 3170 3167 3167 3170 3168 3167 3172 3175 3175 3176 3175 3175 3176 3176 3177 3178 3179 3181 3182 3184 3185
3113 3111 3110 3108 3107 3106 3105 3104 3103 3103 3103 3103 3103 3104 3104 3104 3105 3105 3104 3106 3109 3110 3110 3112 3113 3114 3115 3117 3118 3118 3119 3120 3120 3122 3124 3125 3126 3127 3129 3130 3132 3134 3134 3135 3137 3137 3137 3139 3142 3144 3146 3147 3149 3151 3153 3154 3156 3157 3157 3159 3161 3162 3165 3166 3166 3168 3167 3166 3165 3165 3168 3166 3165 3171 3174 3173 3173 3173 3174 3175 3175 3176 3177 3177 3179 3180 3182 3183
3114 3113 3111 3109 3108 3107 3106 3105 3104 3104 3104 3104 3104 3105 3105 3106 3106 3105 3105 3108 3110 3111 3112 3112 3113 3114 3116 3117 3118 3118 3119 3120 3121 3123 3124 3126 3127 3128 3129 3130 3131 3133 3134 3134 3135 3136 3137 3139 3140 3141 3142 3145 3148 3150 3151 3152 3154 3156 3157 3158 3160 3161 3164 3165 3165 3167 3164 3162 3162 3164 3166 3165 3165 3169 3172 3171 3171 3171 3172 3173 3174 3174 3175 3176 3176 3178 3180 3181
3115 3114 3113 3111 3110 3109 3108 3107 3106 3106 3106 3106 3106 3106 3106 3107 3107 3107 3108 3109 3109 3111 3112 3113 3114 3115 3116 3118 3118 3119 3120 3120 3121 3123 3125 3126 3127 3127 3128 3128 3129 3130 3131 3132 3133 3135 3137 3138 3138 3139 3141 3144 3147 3148 3149 3151 3153 3154 3156 3157 3156 3157 3160 3161 3161 3162 3161 3159 3160 3162 3164 3164 3164 3167 3170 3170 3169 3169 3170 3171 3172 3173 3173 3173 3174 3175 3178 3179
3117 3116 3114 3113 3112 3111 3110 3109 3109 3108 3108 3108 3107 3107 3108 3107 3108 3109 3110 3110 3110 3111 3112 3112 3114 3116 3117 3118 3118 3119 3120 3121 3122 3123 3124 3126 3126 3127 3127 3127 3128 3128 3128 3130 3131 3133 3135 3137 3138 3139 3140 3142 3144 3147 3147 3148 3150 3151 3152 3154 3153 3152 3155 3156 3156 3157 3158 3158 3159 3161 3162 3162 3164 3167 3168 3169 3168 3168 3169 3169 3170 3171 3171 3171 3172 3173 3175 3177
3118 3117 3116 3115 3114 3113 3112 3111 3111 3110 3110 3109 3109 3109 3109 3109 3110 3111 3111 3111 3111 3112 3112 3113 3115 3116 3117 3118 3118 3119 3120 3121 3122 3124 3125 3126 3127 3127 3127 3128 3128 3128 3128 3129 3129 3130 3132 3134 3136 3137 3138 3139 3142 3143 3144 3146 3148 3149 3150 3152 3151 3149 3149 3151 3150 3151 3153 3154 3158 3161 3160 3159 3162 3166 3167 3168 3167 3166 3167 3167 3168 3169 3169 3170 3170 3171 3173 3175
3118 3117 3117 3116 3115 3114 3113 3112 3112 3111 3111 3110 3110 3110 3110 3110 3112 3112 3112 3111 3111 3113 3113 3114 3115 3117 3117 3118 3118 3119 3120 3121 3123 3124 3125 3126 3126 3126 3126 3127 3127 3128 3128 3128 3128 3129 3130 3131 3132 3134 3136 3137 3140 3141 3142 3145 3146 3147 3149 3150 3149 3148 3148 3147 3146 3148 3150 3151 3153 3157 3158 3158 3161 3164 3167 3168 3167 3165 3166 3167 3166 3167 3168 3168 3169 3170 3171 3173
3119 3118 3117 3117 3116 3115 3114 3113 3112 3112 3111 3111 3111 3112 3112 3112 3112 3112 3112 3112 3112 3113 3114 3115 3116 3116 3117 3118 3119 3119 3120 3121 3122 3124 3124 3125 3125 3125 3125 3126 3126 3128 3128 3127 3128 3129 3129 3130 3132 3134 3135 3137 3138 3140 3142 3143 3144 3145 3147 3147 3147 3148 3149 3148 3146 3148 3149 3148 3149 3152 3157 3160 3162 3165 3167 3168 3167 3165 3165 3166 3166 3166 3167 3167 3168 3169 3169 3171
3119 3118 3118 3117 3116 3115 3114 3113 3112 3111 3111 3112 3112 3113 3113 3113 3112 3112 3112 3112 3112 3113 3113 3115 3115 3115 3116 3118 3119 3120 3120 3121 3122 3123 3124 3125 3125 3125 3125 3125 3126 3126 3127 3128 3129 3129 3129 3130 3132 3134 3135 3136 3138 3139 3141 3142 3142 3143 3145 3145 3147 3149 3149 3148 3146 3147 3147 3145 3146 3150 3154 3159 3161 3163 3166 3167 3165 3164 3164 3165 3166 3166 3166 3166 3167 3168 3169 3170
3119 3118 3118 3117 3116 3115 3114 3113 3112 3111 3112 3113 3113 3113 3113 3113 3113 3112 3112 3112 3113 3113 3114 3115 3115 3115 3117 3118 3119 3120 3120 3121 3122 3123 3124 3125 3126 3126 3125 3125 3125 3126 3127 3128 3129 3129 3129 3130 3132 3134 3135 3135 3137 3139 3140 3141 3141 3142 3142 3143 3145 3147 3147 3147 3145 3143 3144 3142 3144 3148 3152 3157 3161 3162 3164 3165 3163 3162 3163 3164 3165 3165 3165 3166 3166 3166 3167 3168
3119 3119 3118 3116 3115 3115 3114 3113 3112 3113 3115 3115 3114 3113 3114 3113 3113 3112 3112 3112 3113 3114 3115 3115 3115 3116 3117 3118 3119 3119 3120 3121 3122 3123 3124 3124 3126 3126 3125 3125 3125 3125 3126 3127 3128 3129 3129 3129 3130 3133 3135 3135 3138 3138 3139 3140 3140 3141 3142 3143 3144 3144 3144 3145 3143 3141 3141 3139 3141 3148 3152 3156 3161 3161 3162 3163 3160 3160 3161 3162 3163 3164 3165 3165 3165 3165 3165 3167
3119 3119 3119 3116 3115 3114 3113 3112 3113 3114 3115 3115 3114 3114 3114 3114 3113 3112 3113 3113 3113 3114 3114 3115 3115 3116 3117 3118 3119 3119 3120 3121 3122 3123 3124 3124 3125 3126 3126 3125 3125 3125 3126 3127 3127 3129 3130 3130 3129 3132 3134 3135 3136 3136 3136 3137 3138 3140 3142 3142 3143 3143 3143 3143 3142 3140 3140 3135 3137 3145 3150 3154 3159 3160 3161 3162 3160 3159 3160 3161 3162 3163 3163 3164 3165 3165 3165 3165
3119 3120 3118 3116 3115 3114 3113 3113 3114 3114 3114 3114 3114 3114 3113 3114 3113 3113 3113 3113 3113 3114 3114 3115 3116 3117 3117 3118 3119 3120 3120 3122 3123 3123 3124 3124 3125 3126 3126 3126 3126 3126 3126 3127 3128 3128 3129 3130 3129 3131 3133 3134 3134 3134 3134 3135 3136 3137 3139 3139 3140 3141 3142 3141 3139 3140 3141 3136 3134 3139 3146 3152 3157 3159 3161 3162 3159 3158 3159 3160 3160 3161 3162 3163 3164 3164 3164 3165
3119 3120 3118 3115 3114 3114 3114 3115 3114 3114 3114 3114 3113 3113 3114 3114 3114 3114 3114 3114 3114 3114 3114 3115 3116 3117 3118 3118 3119 3120 3121 3122 3123 3124 3124 3124 3124 3125 3125 3126 3126 3126 3126 3127 3128 3128 3128 3130 3130 3131 3132 3133 3133 3133 3134 3134 3135 3136 3137 3138 3139 3140 3141 3140 3138 3139 3140 3139 3137 3138 3145 3154 3157 3158 3160 3161 3159 3158 3158 3159 3159 3160 3161 3162 3163 3163 3163 3164
3119 3118 3116 3115 3114 3113 3115 3116 3115 3114 3114 3114 3113 3113 3114 3114 3114 3114 3114 3114 3115 3115 3115 3115 3116 3117 3117 3118 3119 3120 3120 3121 3123 3123 3123 3124 3124 3125 3125 3125 3126 3126 3127 3128 3128 3128 3128 3129 3130 3131 3132 3133 3133 3134 3134 3134 3135 3137 3137 3137 3138 3139 3140 3139 3138 3138 3138 3138 3138 3140 3147 3155 3157 3157 3159 3160 3159 3159 3158 3158 3159 3159 3161 3161 3161 3162 3163 3164
3118 3117 3116 3115 3114 3113 3116 3117 3116 3115 3114 3114 3114 3114 3114 3114 3114 3114 3114 3114 3115 3115 3116 3116 3116 3117 3117 3118 3119 3120 3120 3121 3122 3123 3123 3124 3124 3125 3125 3125 3126 3126 3127 3127 3128 3128 3129 3129 3130 3130 3130 3132 3134 3134 3134 3134 3135 3136 3136 3135 3136 3137 3138 3138 3139 3139 3138 3137 3137 3137 3144 3152 3154 3155 3158 3159 3160 3159 3158 3159 3159 3159 3160 3160 3161 3161 3162 3163
3118 3117 3116 3115 3114 3114 3115 3116 3116 3116 3115 3115 3115 3115 3114 3114 3114 3114 3114 3115 3115 3116 3116 3116 3116 3117 3118 3118 3119 3120 3120 3121 3122 3122 3123 3124 3124 3125 3125 3125 3125 3126 3126 3127 3127 3128 3128 3129 3129 3128 3127 3128 3129 3130 3131 3133 3134 3135 3134 3134 3135 3136 3137 3138 3139 3139 3137 3138 3139 3138 3142 3150 3153 3154 3156 3158 3159 3159 3158 3159 3159 3159 3160 3160 3160 3161 3161 3162
3118 3118 3117 3116 3115 3115 3115 3114 3115 3116 3116 3116 3115 3115 3115 3115 3114 3114 3114 3115 3115 3115 3116 3117 3117 3118 3118 3119 3120 3120 3120 3121 3121 3122 3123 3124 3124 3125 3125 3125 3125 3125 3126 3126 3127 3128 3128 3128 3128 3128 3127 3126 3127 3128 3129 3132 3134 3134 3134 3134 3135 3135 3136 3138 3139 3138 3136 3138 3142 3141 3142 3147 3151 3153 3154 3156 3157 3157 3158 3159 3159 3160 3160 3160 3160 3160 3161 3162
3118 3118 3117 3116 3116 3116 3115 3114 3114 3115 3115 3115 3115 3115 3116 3116 3115 3115 3114 3115 3115 3115 3116 3117 3117 3118 3119 3120 3120 3120 3121 3121 3122 3123 3123 3124 3124 3125 3125 3125 3125 3125 3125 3125 3126 3127 3128 3129 3128 3128 3128 3128 3129 3129 3130 3131 3133 3133 3133 3134 3134 3135 3136 3138 3137 3137 3136 3138 3142 3144 3143 3146 3149 3151 3153 3154 3155 3156 3157 3158 3159 3159 3159 3159 3160 3160 3160 3161
3117 3117 3117 3116 3116 3116 3116 3115 3115 3114 3114 3115 3115 3115 3116 3116 3116 3115 3115 3115 3115 3116 3117 3117 3117 3118 3118 3119 3120 3121 3121 3122 3122 3123 3123 3124 3124 3125 3125 3125 3125 3125 3125 3125 3125 3126 3128 3128 3128 3128 3128 3128 3129 3129 3130 3131 3132 3132 3133 3134 3134 3135 3136 3137 3136 3136 3137 3137 3140 3144 3145 3146 3148 3150 3151 3153 3153 3154 3156 3157 3158 3158 3159 3159 3159 3160 3161 3161
3117 3117 3117 3116 3116 3116 3116 3115 3115 3115 3115 3115 3115 3115 3116 3116 3116 3115 3116 3116 3116 3116 3117 3117 3117 3117 3118 3118 3120 3120 3121 3122 3122 3122 3123 3123 3124 3124 3125 3125 3125 3124 3124 3124 3124 3125 3127 3127 3127 3128 3128 3128 3128 3129 3130 3131 3131 3132 3133 3133 3134 3135 3136 3136 3137 3137 3137 3138 3140 3143 3145 3146 3148 3149 3150 3151 3152 3153 3155 3156 3156 3157 3158 3159 3159 3160 3160 3161
3118 3117 3117 3117 3116 3116 3116 3116 3115 3115 3115 3115 3115 3115 3116 3116 3116 3116 3116 3116 3117 3116 3117 3118 3117 3118 3118 3118 3119 3120 3120 3121 3121 3121 3122 3123 3124 3124 3125 3125 3124 3124 3123 3124 3124 3124 3126 3127 3126 3127 3129 3128 3128 3129 3129 3130 3131 3132 3132 3133 3134 3135 3136 3137 3137 3138 3139 3140 3141 3143 3144 3145 3147 3147 3148 3150 3151 3153 3154 3155 3155 3156 3157 3158 3158 3159 3160 3160
3118 3117 3117 3117 3117 3116 3116 3116 3116 3116 3116 3116 3116 3116 3116 3117 3117 3116 3116 3116 3117 3117 3118 3118 3118 3118 3118 3118 3119 3119 3119 3120 3120 3120 3121 3122 3123 3123 3123 3123 3123 3124 3124 3123 3124 3124 3126 3126 3126 3127 3128 3128 3128 3129 3129 3130 3131 3132 3132 3132 3133 3135 3136 3136 3136 3137 3139 3141 3142 3144 3145 3145 3145 3146 3148 3149 3150 3151 3152 3153 3154 3155 3156 3157 3158 3158 3159 3159
3118 3118 3117 3117 3117 3117 3117 3116 3117 3117 3117 3116 3116 3116 3117 3117 3117 3117 3117 3117 3117 3118 3118 3118 3119 3120 3119 3119 3119 3119 3119 3119 3120 3120 3121 3121 3122 3122 3122 3122 3123 3123 3123 3123 3124 3124 3125 3126 3127 3127 3127 3128 3128 3128 3129 3130 3131 3131 3130 3130 3132 3133 3134 3135 3135 3136 3138 3141 3143 3144 3144 3144 3144 3145 3148 3149 3149 3150 3151 3152 3153 3154 3155 3156 3157 3157 3158 3158